User: anonymous   Login
Location: Newark
(48.0000°N, 67.0000°E)
Time: 19:24:21
(UTC+00:00)
Language:

NOAA 19 - Orbit

View from above orbital plane
View from above orbital plane
View from above satellite
View from above satellite

Ground track
Ground track

The orbit data is extracted from the following two-line orbital elements,

1 33591U 09005A   20101.23117911 +.00000024 +00000-0 +38289-4 0  9994
2 33591 099.1972 104.8007 0012950 266.9900 092.9788 14.12402037575508
Epoch (UTC): 10 April 2020 05:32:53
Eccentricity: 0.0012950
inclination: 99.1972°
perigee height: 842 km
apogee height: 860 km
right ascension of ascending node: 104.8007°
argument of perigee: 266.9900°
revolutions per day: 14.12402037
mean anomaly at epoch: 92.9788°
orbit number at epoch: 57550

The dashed part of the orbit path shows where the satellite is in the earth's shadow,  

DLR